Regional Weather Roundup
Issued by NWS Charleston, SC

Current Version | Previous Version | Text Only | Print | Product List | Glossary Off
Versions: 1 2 3 4 5 6 7 8 9 10 11 12 13 14 15 16 17 18 19 20 21 22 23 24 25 26 27 28 29 30 31 32 33 34 35 36 37 38 39 40 41 42 43 44 45 46 47 48 49 50
000 ASUS42 KCHS 210927 RWRCHS REGIONAL WEATHER ROUNDUP NATIONAL WEATHER SERVICE CHARLESTON SC 400 AM EST TUE NOV 21 2017 NOTE: "FAIR" INDICATES FEW OR NO CLOUDS BELOW 12,000 FEET WITH NO SIGNIFICANT WEATHER AND/OR OBSTRUCTIONS TO VISIBILITY. NOT ALL STATIONS ARE QUALITY CONTROLLED. USE DATA WITH CAUTION... ESPECIALLY DEWPOINT OBSERVATIONS. SCZ027-030-031-034>040-042>050-211000- ...SOUTHEAST SOUTH CAROLINA... CITY SKY/WX TMP DP RH WIND PRES REMARKS N CHARLESTON PTCLDY 44 42 93 N5 30.18F WATERFRONT PRK NOT AVBL JOHNS ISLAND PTSUNNY 50 46 87 VRB3 30.17F PINOPOLIS N/A 52 46 82 NE7 30.12F MONCKS CORNER FAIR 41 39 93 CALM 30.19F SUMMERVILLE FAIR 37 37 100 CALM 30.20F BEAUFORT MCAS CLOUDY 50 48 93 N7 30.17F BEAUFORT ARPT CLOUDY 52 46 82 N3 30.16F HILTON HEAD IS MOCLDY 55 52 88 N7 30.16F WALTERBORO CLOUDY 43 39 87 CALM 30.19F ALLENDALE CLOUDY 45 41 87 CALM 30.17F ...SOUTHERN MIDLANDS AND PEE DEE... CITY SKY/WX TMP DP RH WIND PRES REMARKS GEORGETOWN FAIR 37 37 100 CALM 30.21S KINGSTREE FAIR 34 32 93 CALM 30.22S ORANGEBURG CLEAR 38 35 89 CALM 30.20F BARNWELL N/A 43 39 87 CALM 30.18F AIKEN PTSUNNY 37 34 87 NE5 30.21F WCI 34 MANNING FAIR 36 36 100 MISG 30.21F COLUMBIA CLOUDY 35 33 92 CALM 30.21F SUMTER CLOUDY 34 31 88 NE3 30.19F FLORENCE CLOUDY 35 32 88 N5 30.23F WCI 31 MYRTLE BEACH CLEAR 41 39 93 N5 30.22F N MYRTLE BEACH CLEAR 40 39 97 N3 30.21F $$ GAZ063-065-086>088-099>101-113>116-118-119-134>141-150-211000- ...SOUTHEAST GEORGIA... CITY SKY/WX TMP DP RH WIND PRES REMARKS SAVANNAH ARPT CLOUDY 53 48 83 NE5 30.16S HUNTER AAF CLOUDY 55 49 83 CALM 30.12F FORT STEWART CLOUDY 53 48 83 CALM 30.12F STATESBORO CLOUDY 51 41 69 CALM 30.16S SYLVANIA CLOUDY 50 45 81 E3 30.17F CLAXTON CLOUDY 53 48 83 NE3 30.15F ...CSRA...CENTRAL AND FAR SOUTHEAST GEORGIA... CITY SKY/WX TMP DP RH WIND PRES REMARKS THOMSON CLOUDY 43 39 84 CALM 30.21F AUGUSTA-BUSH CLOUDY 39 38 96 N3 30.18F AUGUSTA-DANIEL CLOUDY 48 34 58 E6 30.18F SWAINSBORO CLOUDY 52 45 76 E6 30.15F VIDALIA CLOUDY 54 48 82 E3 30.14F EASTMAN FAIR 49 40 68 CALM 30.15F HAZLEHURST FAIR 52 44 73 E3 30.12S ALMA MOCLDY 54 50 86 VRB3 30.11F WAYCROSS MOCLDY 54 51 90 CALM 30.11F JESUP CLOUDY 55 52 88 CALM 30.13S BAXLEY MOCLDY 50 50 100 E6 30.12F BRUNSWICK MOCLDY 54 52 94 CALM 30.12F SAINT SIMONS PTCLDY 66 58 75 E7 30.11F $$ SCZ027-028-034-036>038-045-046-048>050-GAZ119-141-211000- ...LAKE AND SUPPLEMENTAL COASTAL OBSERVATIONS... STATION/POSITION TIME TEMP WIND PRES WAVE SWELL AIR SEA DIR/SP/G HT/PER HT/PER/DIR (UTC) (F) (DEG/KT/KT) (MB) (FT/S) (FT/S/D) WINYAH BAY 0845 52 10/ 5 1023.0S LAKE MURRAY 0920 43 CALM / 3 1022.0 ACE BASIN NERRS 0845 49 340/ 2 1022.0S FORT PULASKI 0900 58 61 50/ 6/ 10 1021.0 SAPELO ISLAND 0900 58 40/ 5 1020.0 $$ ANZ835-935-AMZ111-154-330-350-352-354-370-450-454-472-211000- ...C-MAN AND BUOY OBSERVATIONS... STATION/POSITION TIME TEMP WIND PRES WAVE SWELL AIR SEA DIR/SP/G HT/PER HT/PER/DIR (UTC) (F) (DEG/KT/KT) (MB) (FT/S) (FT/S/D) BUOY 41004 0910 69 73 120/ 12/ 16 1020.9 BUOY 41008 0850 69 67 130/ 12/ 14 1019.7F 4/ 5 2/100/ 8 FOLLY BEACH CMAN 0900 55 20/ 5/ 7 1022.2S CAPERS NEARSHORE 0908 54 61 10/ 12/ 16 1021.5R FRIPP NEARSHORE 0908 57 61 20/ 8/ 14 1020.1F STATION/POSITION TIME TEMP WIND PRES WAVE SWELL AIR SEA DIR/SP/G HT/PER HT/PER/DIR (UTC) (F) (DEG/KT/KT) (MB) (FT/S) (FT/S/D) 5E ST. MARYS GA 0900 67 N/A 4/ 5 FRYING PAN BUOY 0910 67 69 160/ 10/ 14 1022.1 BUOY 41025 0910 61 75 340/ 6/ 8 1024.3 CAPE LOOKOUT NC 0900 360/ 6/ 7 1024.2F BUOY 41002 0850 69 76 100/ 14/ 17 1022.2F 4/ 7 3/ 20/ 7 BUOY 41010 NOT AVBL ST AUGUSTINE FL 0900 71 67 130/ 11/ 12 1018.7F $$

USA.gov is the U.S. government's official web portal to all federal, state and local government web resources and services.